Regional Weather Roundup
Issued by NWS Wakefield, VA

Home | Current Version | Previous Version | Graphics & Text | Print | Product List | Glossary On
Versions: 1 2 3 4 5 6 7 8 9 10 11 12 13 14 15 16 17 18 19 20 21 22 23 24 25 26 27
000
ASUS41 KAKQ 191616
RWRAKQ

REGIONAL WEATHER ROUNDUP
NATIONAL WEATHER SERVICE WAKEFIELD VA
1200 PM EDT TUE SEP 19 2017

Note: "fair" indicates few or no clouds below 12,000 feet with no
significant weather and/or obstructions to visibility. * = Denotes
station may not report precipitation (e.g., rain,snow,etc.),
thunder or fog.

VAZ042-051-052>054-056-191700-
NORTHERN VIRGINIA

CITY           SKY/WX    TMP DP  RH WIND       PRES   REMARKS
WASH NATIONAL  PTSUNNY   77  67  71 NW13      30.00S
DULLES         PTSUNNY   75  66  73 N10       30.02S
FORT BELVOIR   MOSUNNY   76  65  68 NW8       29.99F
QUANTICO       PTSUNNY   77  67  71 N13       30.00F
FREDERICKSBRG* PTSUNNY   75  66  75 N9G18     29.99F
STAFFORD*      PTSUNNY   76  69  78 NW14      30.04F
WARRENTON      PTSUNNY   77  62  60 N12       30.01F
CULPEPER*      SUNNY     77  66  68 N10       30.02F
MANASSAS*      CLOUDY    75  66  73 N13       30.02F
LEESBURG*      CLOUDY    75  68  78 N8        30.03F
WINCHESTER     CLOUDY    70  63  78 CALM      30.05F
FRONT ROYAL*   CLOUDY    70  63  78 NW3       30.05F
LURAY*         PTSUNNY   73  63  68 NE3       30.05F
$$

VAZ048-049-060>072-079>083-191700-
CENTRAL AND SOUTH CENTRAL VIRGINIA

CITY           SKY/WX    TMP DP  RH WIND       PRES   REMARKS
RICHMOND       PTSUNNY   76  66  71 N13       29.97F
CHESTERFIELD*  NOT AVBL
PETERSBURG*    PTSUNNY   77  63  61 N9        29.98F
HANOVER          N/A    N/A N/A N/A MISG      29.99F
TAPPAHANNOCK*  CLOUDY    78  65  64 NW8       29.97S
QUINTON*       CLOUDY    76  67  74 NW7G18    29.95F
CHARLOTTSVILLE SUNNY     80  64  58 N6        30.01F HAZE
GORDONSVILLE*  SUNNY     76  66  71 NW7       30.00F
ORANGE*        SUNNY     77  64  65 CALM      30.01F
LOUISA*        MOSUNNY   75  64  69 N7        30.00F
BUMPASS*       NOT AVBL
FARMVILLE*     SUNNY     79  67  68 N6        29.99F
CREWE*         PTSUNNY   75  70  84 N6        30.00F
FORT PICKETT*  PTSUNNY   76  69  79 N12       30.00F
CHASE CITY*    FAIR      77  68  73 N5        30.01F
CLARKSVILLE*   FAIR      75  64  69 N5        30.01F
SOUTH HILL*    MOSUNNY   75  67  77 N9        30.05F
LAWRENCEVILLE* FAIR      76  65  70 N10       29.98F
EMPORIA*       PTSUNNY   77  64  65 W12G17    29.97F
$$

VAZ088>098-191700-
SOUTHEAST VIRGINIA

CITY           SKY/WX    TMP DP  RH WIND       PRES   REMARKS
NORFOLK        LGT RAIN  73  69  87 N13G25    29.87F
VIRGINIA BEACH CLOUDY    72  67  84 N21G31    29.85S
NORFOLK NAVAL  CLOUDY    74  69  85 NW17G28   29.89F
WEST POINT*    CLOUDY    75  66  73 NW10G16   29.94F
SALUDA*        CLOUDY    76  69  79 N12G22    29.91F
NEWPORT NEWS   CLOUDY    76  67  73 N15G24    29.90F
LANGLEY AFB    LGT RAIN  73  69  87 N9        29.89F
FORT EUSTIS    PTSUNNY   78  68  72 NW15      29.89S
WILLIAMSBURG*  SUNNY     79  70  73 NW12G21   29.93F
HR EXEC AP*    LGT RAIN  72  68  87 N9G16     29.91S
FRANKLIN*      CLOUDY    75  66  73 NW8G17    29.93F
US460-WAKEFLD  PTSUNNY   77  67  71 N8G18     29.94F
$$

VAZ020-022-025-037-045-191700-
WEST CENTRAL AND SOUTHWEST VIRGINIA

CITY           SKY/WX    TMP DP  RH WIND       PRES   REMARKS
STAUNTON*      PTSUNNY   72  62  70 E5        30.08F
WAYNESBORO*    PTSUNNY   71  64  77 NW5       30.08F
HOT SPRINGS VA CLOUDY    64  60  88 CALM      30.17S
LYNCHBURG      MOSUNNY   77  61  57 VRB3      30.04F
DANVILLE       MOSUNNY   76  67  73 N8        30.04F
SOUTH BOSTON*  FAIR      77  64  64 NE3       30.02F
MARTINSVILLE   PTSUNNY   76  63  64 N3        30.08F
ROANOKE        MOSUNNY   74  65  73 NE5       30.08F
BLACKSBURG     PTSUNNY   71  64  79 CALM      30.13F
DUBLIN*        SUNNY     73  66  78 CALM      30.11F
MARION*        MOSUNNY   76  58  52 S6        30.14S
HILLSVILLE*    MOSUNNY   72  59  63 SW3       30.11F
RICHLANDS*     FAIR      75  60  59 NW3       30.12F
WISE*          SUNNY     75  57  53 SW6       30.13S
ABINGDON*      SUNNY     78  60  54 W8        30.09F
$$

MDZ021>025-VAZ099-100-191700-
SOUTHERN MARYLAND AND THE DELMARVA PENINSULA

CITY           SKY/WX    TMP DP  RH WIND       PRES   REMARKS
PATUXENT RIVER PTSUNNY   76  69  79 N15G24    29.93F
BAY BRIDGE APT NOT AVBL
LEONARDTOWN    CLOUDY    77  66  69 NW9       29.96S
DOVER          PTSUNNY   73  68  83 N16G24    29.90F
GEORGETOWN     LGT RAIN  73  68  84 N12G23    29.89F
EASTON         PTSUNNY   77  66  69 NE16G25   29.97S
CAMBRIDGE      NOT AVBL
SALISBURY      LGT RAIN  73  68  84 N16G24    29.88R
OCEAN CITY     CLOUDY    72  69  90 N20G31    29.85F
WALLOPS ISLAND LGT RAIN  71  70  96 N16G26    29.85S FOG
ACCOMACK*      CLOUDY    75  68  79 N14G26    29.85F
$$

NCZ012>017-030>032-191700-
NORTH CENTRAL AND EASTERN NORTH CAROLINA

CITY           SKY/WX    TMP DP  RH WIND       PRES   REMARKS
ROANOKE RAPIDS NOT AVBL
RALEIGH        MOSUNNY   78  65  63 N10       30.00F
ELIZABETH CITY CLOUDY    73  72  96 NW15      29.87F
AHOSKIE*         N/A     76  67  71 NW7       29.95S
EDENTON*       NOT AVBL
CURRITUCK*     NOT AVBL
KILL DEVIL HLS NOT AVBL
MANTEO         NOT AVBL
CAPE HATTERAS  CLOUDY    73  70  90 NW15G24   29.84F
TARBORO*       NOT AVBL
GOLDSBORO      SUNNY     78  71  80 NW9       29.96F
WASHINGTON     MOSUNNY   78  66  68 NW10G20   29.93F
GREENVILLE     NOT AVBL
NEW BERN       CLOUDY    77  67  71 NW13G22   29.94F
WILMINGTON     SUNNY     79  67  66 W8        29.97S
$$

VAZ048-191700-
ELSEWHERE

CITY           SKY/WX    TMP DP  RH WIND       PRES   REMARKS
HARRISBURG PA  CLOUDY    74  67  78 NW10      30.02F
BALTIMORE      MOSUNNY   78  67  68 N9G20     29.98F
ANNAPOLIS      MOSUNNY   78  70  76 N14       29.96F
ANDREWS AFB    MOSUNNY   77  66  68 N12       29.98S
PHILADELPHIA   PTSUNNY   78  64  61 NE17G31   29.95F
GREENSBORO     MOSUNNY   78  66  66 NW7       30.04F
ROCKY MOUNT    MOSUNNY   78  66  66 N10       29.98F
$$

VAZ100-191700-
MARINE

STATION/POSITION TIME  TEMP    WIND        PRES    WAVE   SWELL
                       AIR SEA DIR/SP/G            HT/PER HT/PER
                 (UTC) (F)     (DEG/KT/KT) (MB)    (FT/S) (FT/S)
BRANDYWINE LGT   1536   73      30/ 25/ 30 1012.4F
CAPE MAY NJ      1542   74 74   30/  8/ 17 1011.3F
LEWES DE         1536   73 72   CALM  /  1 1011.8F
15NM E FENWICK I 1550   71 71  360/ 33/ 41 1008.7F  14/ 8  10/14
OCEAN-CITY-INLET 1536   72 73   40/ 13/ 22 1011.0F
WACHAPREAGUE VA  1536   73 74  350/  8/ 16 1010.7F
THOMAS POINT MD  1600   74 75  360/ 15/ 16   N/A
GOOSES REEF MD   1600   74 74  360/ 19/ 23 1014.6
COVE POINT MD    1536   73     360/ 16/ 25 1014.3F
SOLOMONS ISLAND  1536   74 76  360/ 14/ 20 1013.4F
BISHOPS HEAD MD  1536   74 73  350/ 12/ 16 1012.9R
PINEY POINT MD   1536           10/ 14/ 17   N/A
POTOMAC MD       1600   75 75  360/ 16/ 21 1012.2    1/ 3
CAMBRIDGE MD     1536   76 76              1014.1S
LEWISETTA VA     1536   75 75   10/  9/ 16 1013.5S
RAPPAHANNOCK LGT 1536          330/ 24/ 29 1012.0F
STINGRAY PT      1600   75 75   10/ 17/ 23 1012.3    3/ 3
YORK RVR RNG VA  1536   74     360/ 21/ 24 1012.5F
YORKTOWN VA      1536   75 76  350/ 17/ 21 1012.5F
JAMESTOWN VA     1600      78  340/ 14/ 17   N/A     1/ 3
DOMINION TERM VA 1536   73     120/  2/  5 1012.9R
KIPTOPEKE VA     1536      75  350/ 19/ 24   N/A
CHES BAY BRIDGE  1536   73 75  340/ 24/ 31 1011.2F
CAPE HENRY VA    1536   73     330/ 29/ 35   N/A
WILLOUBY STN VA  1536   72     340/ 19/ 22 1012.2F
S CRANEY ISL VA  1536   72     350/ 13/ 20 1012.4R
CAPE HENRY BUOY  1600      74                N/A     9/13   5/13
1ST LANDING BUOY 1600   74 74              1010.7    6/ 5
64NM E OF VA BCH 1550   71 71  350/ 33/ 41 1005.3F  17/11  13/11
DUCK PIER NC     1536   72 75  330/ 18/ 23 1009.4R
44100 DUCK FRF   1535      74                N/A    14/13  10/13
44056 DUCK FRF   1600      75                N/A    12/13   8/13
OREGON INLET NC  1536   71 74  320/ 18/ 26 1009.7R
HATTERAS NC      1536   72 76  320/ 23/ 27 1010.7S
DIAMOND SHLS NC  1550   72 75  310/ 23/ 27 1009.5R  10/13   7/13
CAPE LOOKOUT NC  1600   76     320/ 17/ 20 1012.3F
$$




USA.gov is the U.S. government's official web portal to all federal, state and local government web resources and services.